Burns, OR

8:17 PM PDT on March 29, 2017 (GMT -0700)
Burns Municipal

Weather History for KBNO - March, 2014

Change the Weather History Date:

Wednesday, March 19, 2014

  Actual Average Record
Temperature  
Mean Temperature 38 °F 38 °F  
Max Temperature 58 °F 51 °F 69 °F (1978)
Min Temperature 17 °F 26 °F 13 °F (1965)
Degree Days  
Heating Degree Days 27 27  
Month to date heating degree days 455 554  
Since 1 July heating degree days 5738 6082  
Cooling Degree Days 0 0  
Month to date cooling degree days 0 0  
Year to date cooling degree days 0 0  
Moisture  
Dew Point 19 °F    
Average Humidity 56    
Maximum Humidity 92    
Minimum Humidity 19    
Precipitation  
Precipitation 0.00 in 0.03 in 0.39 in (1953)
Month to date precipitation 0.76 0.69  
Year to date precipitation 2.88 2.90  
Sea Level Pressure  
Sea Level Pressure 30.11 in    
Wind  
Wind Speed 8 mph (WSW)    
Max Wind Speed 23 mph    
Max Gust Speed 27 mph    
Visibility 10 miles    
Events      
T = Trace of Precipitation, MM = Missing Value Source: NWS Daily Summary

Daily Weather History Graph

Daily Weather History Graph

Search for Another Location

Airport or City:

Trip Planner

Search our weather history database for the weather conditions in past years. The results will help you decide how hot, cold, wet, or windy it might be!

Date:

Astronomy

Mar. 19, 2014 Rise Set
Actual Time 7:00 AM PDT 7:07 PM PDT
Civil Twilight 6:32 AM PDT 7:35 PM PDT
Nautical Twilight 5:58 AM PDT 8:09 PM PDT
Astronomical Twilight 5:24 AM PDT 8:43 PM PDT
Moon 10:37 PM PDT (3/19) 8:23 AM PDT (3/19)
Length of Visible Light 13h 03m
Length of Day
12h 06m
Waning Gibbous, 90% of the Moon is Illuminated
Mar 19
Waning Gibbous
Mar 23
Last Quarter
Mar 30
New
Apr 7
First Quarter
Apr 15
Full

Hourly Weather History & Observations

Time (PDT) Temp. Windchill Dew Point Humidity Pressure Visibility Wind Dir Wind Speed Gust Speed Precip Events Conditions
12:53 AM 21.9 °F 17.2 °F 18.0 °F 85% 30.21 in 10.0 mi WSW 3.5 mph - N/A   Clear
1:53 AM 23.0 °F 17.0 °F 19.0 °F 85% 30.18 in 10.0 mi North 4.6 mph - N/A   Clear
2:53 AM 24.1 °F 16.0 °F 19.0 °F 81% 30.18 in 10.0 mi West 6.9 mph - N/A   Clear
3:53 AM 23.0 °F 18.4 °F 18.0 °F 81% 30.17 in 10.0 mi North 3.5 mph - N/A   Clear
4:53 AM 21.9 °F 17.2 °F 18.0 °F 85% 30.16 in 10.0 mi Variable 3.5 mph - N/A   Clear
5:53 AM 21.0 °F - 18.0 °F 88% 30.17 in 10.0 mi Calm Calm - N/A   Clear
6:53 AM 18.0 °F 9.8 °F 15.1 °F 88% 30.19 in 10.0 mi West 5.8 mph - N/A   Clear
7:53 AM 24.1 °F 19.7 °F 19.0 °F 81% 30.20 in 10.0 mi WSW 3.5 mph - N/A   Clear
8:53 AM 34.0 °F - 21.0 °F 59% 30.19 in 10.0 mi Calm Calm - N/A   Clear
9:53 AM 37.9 °F 34.4 °F 19.9 °F 48% 30.18 in 10.0 mi SE 4.6 mph - N/A   Clear
10:53 AM 41.0 °F 38.0 °F 19.9 °F 43% 30.18 in 10.0 mi SSE 4.6 mph - N/A   Clear
11:53 AM 48.0 °F - 18.0 °F 30% 30.15 in 10.0 mi SSW 12.7 mph - N/A   Clear
12:53 PM 51.1 °F - 17.1 °F 26% 30.12 in 10.0 mi SSW 12.7 mph 18.4 mph N/A   Clear
1:53 PM 53.1 °F - 16.0 °F 23% 30.08 in 10.0 mi SW 4.6 mph - N/A   Clear
2:53 PM 55.0 °F - 17.1 °F 23% 30.04 in 10.0 mi South 15.0 mph 21.9 mph N/A   Clear
3:53 PM 57.0 °F - 16.0 °F 20% 30.02 in 10.0 mi SW 16.1 mph 24.2 mph N/A   Clear
4:53 PM 57.0 °F - 16.0 °F 20% 30.01 in 10.0 mi SW 16.1 mph - N/A   Clear
5:53 PM 57.0 °F - 15.1 °F 19% 30.00 in 10.0 mi SW 16.1 mph 23.0 mph N/A   Clear
6:53 PM 51.1 °F - 19.0 °F 28% 30.02 in 10.0 mi WSW 12.7 mph - N/A   Clear
7:53 PM 45.0 °F 39.7 °F 19.9 °F 37% 30.04 in 10.0 mi West 10.4 mph - N/A   Clear
8:53 PM 37.9 °F 32.7 °F 21.9 °F 53% 30.05 in 10.0 mi WNW 6.9 mph - N/A   Clear
9:53 PM 37.9 °F 32.1 °F 25.0 °F 60% 30.06 in 10.0 mi SW 8.1 mph - N/A   Clear
10:53 PM 39.9 °F 32.9 °F 25.0 °F 55% 30.06 in 10.0 mi WSW 11.5 mph - N/A   Clear
11:53 PM 37.9 °F 30.0 °F 25.0 °F 60% 30.07 in 10.0 mi West 12.7 mph - N/A   Clear